Theta_e
318 320 320 320 321 322 323 323 323 323 322 322 322 322 319 318 313 310 310 312 312 314 314 312 312 317 318 318 319 318 318 315 315 319 317 318 318 314 313 315 316 316 319 323 325 327 328 328 329 330 330 330 330 329 329 328 327 327 327 328 328 328 327 327 326 326 326 327 327 327 327 326 326 326
313 315 317 318 319 320 320 321 322 321 321 321 321 320 320 320 315 314 310 311 314 313 314 316 315 312 316 317 318 318 318 311 314 319 319 319 319 313 312 313 315 317 318 319 321 324 326 327 328 328 329 330 329 329 330 330 330 330 329 329 329 328 327 326 325 325 325 325 326 326 327 327 327 326
307 309 310 314 316 318 319 319 319 319 319 319 319 320 320 318 317 316 314 309 314 316 313 313 315 316 315 317 317 319 320 316 315 318 318 318 311 308 312 309 313 316 318 318 319 322 324 326 328 328 329 329 329 330 330 330 330 330 330 329 328 326 324 324 323 324 324 324 325 325 326 327 327 327
304 305 306 308 310 314 316 317 318 318 318 318 318 318 318 318 318 317 315 312 312 316 315 316 315 316 315 316 316 316 317 317 308 316 317 318 308 313 316 309 308 310 311 312 313 313 315 319 322 325 326 327 328 328 329 329 329 329 329 327 325 323 322 322 323 323 323 323 324 324 325 325 326 327
300 301 303 304 307 309 310 313 315 316 316 316 316 315 315 316 316 316 314 312 312 314 315 315 316 317 317 316 315 315 315 314 315 312 316 316 317 317 317 317 309 308 309 311 312 313 312 313 316 319 320 322 324 324 324 324 324 323 321 320 319 320 321 322 323 322 322 323 323 323 324 324 325 325
297 297 298 300 302 304 306 308 310 312 313 313 313 313 313 313 313 314 313 312 311 310 312 312 315 314 315 314 312 313 313 314 312 313 314 315 315 317 317 317 317 309 308 309 311 311 311 311 311 311 311 313 315 315 316 314 313 313 314 314 314 315 317 319 320 320 320 320 320 321 322 323 324 324
294 294 295 296 299 302 302 304 306 308 309 311 312 312 312 311 312 312 312 311 309 308 308 309 309 310 311 313 314 312 313 313 313 312 313 313 315 316 316 317 317 310 308 309 309 310 310 310 310 310 310 309 310 310 310 310 310 310 311 311 312 312 313 314 314 315 315 315 316 316 317 319 322 323
291 292 293 294 296 297 298 300 302 304 306 307 308 309 310 311 311 311 312 311 310 309 307 308 308 308 308 308 311 312 312 312 311 312 312 312 312 313 314 314 314 311 309 309 309 309 309 309 309 310 309 310 310 309 309 309 308 309 309 309 309 309 309 310 310 311 311 312 313 314 314 315 317 320
289 290 290 292 293 295 295 295 297 300 301 303 304 304 306 307 308 309 309 309 309 308 307 307 308 307 308 308 308 309 308 308 308 307 308 310 312 312 312 312 314 308 307 307 307 307 307 308 308 309 309 309 309 309 308 307 306 306 307 307 307 307 308 308 308 308 309 309 309 309 310 311 312 315
287 288 289 290 292 293 293 294 295 296 297 296 297 297 298 300 303 304 305 306 305 305 305 304 304 302 303 303 303 304 306 306 306 306 306 306 308 309 310 311 312 313 313 313 314 308 306 306 306 307 308 308 308 307 307 306 305 304 305 305 306 306 306 306 306 307 307 307 307 307 307 307 308 309
287 287 287 288 290 291 293 294 294 294 293 294 293 293 293 294 295 296 298 301 302 303 304 304 304 304 303 302 304 303 302 304 304 304 303 304 306 305 305 307 310 309 311 308 306 307 308 306 307 308 306 306 306 306 305 305 304 303 303 304 305 305 305 305 305 305 306 306 306 306 306 306 306 307
286 286 287 288 289 291 292 291 291 291 291 292 292 292 292 292 292 292 294 296 298 299 300 301 302 302 302 301 301 302 300 300 303 304 303 303 304 304 303 305 307 306 306 307 308 305 304 304 304 304 304 304 304 304 303 302 301 301 303 304 305 305 305 305 305 305 304 304 305 305 305 305 305 306
286 286 286 287 288 289 289 288 288 289 290 291 291 292 292 292 291 290 291 291 292 294 296 297 299 299 300 300 299 298 297 300 302 302 302 302 303 304 303 304 305 305 304 303 305 307 307 307 307 307 307 308 305 304 302 303 302 302 304 305 305 305 305 305 305 304 304 304 304 304 304 305 305 305
285 286 286 287 287 287 287 288 288 290 290 290 290 290 291 291 290 290 290 290 291 292 292 293 295 295 296 298 299 299 298 299 298 298 299 299 299 298 298 298 300 301 299 302 303 305 304 303 303 304 305 307 304 307 308 308 307 305 305 305 305 305 305 305 304 304 304 303 303 303 304 304 304 304
284 285 286 287 287 287 287 288 288 289 289 290 290 290 291 291 291 290 290 290 290 290 291 293 294 294 294 296 297 296 296 296 296 296 295 295 295 295 296 298 295 290 298 295 295 300 298 299 301 301 302 303 304 306 308 305 303 304 305 305 305 305 305 305 304 304 303 303 303 303 303 303 304 304
284 284 285 286 287 287 287 286 287 288 289 289 290 290 289 289 290 291 291 290 290 290 289 289 291 293 293 294 295 295 295 294 291 290 292 290 292 293 294 293 295 293 295 291 293 296 299 295 297 300 302 303 301 304 304 304 304 304 304 304 304 304 304 304 304 304 304 304 304 303 303 303 303 303
284 284 284 284 285 286 285 286 287 287 287 288 288 288 288 288 289 290 291 291 291 291 290 289 289 290 292 293 294 295 293 294 293 293 293 293 294 294 295 295 296 294 294 294 292 295 298 297 292 298 301 302 298 302 301 302 303 304 304 304 304 304 303 303 304 304 304 304 303 303 303 303 303 303
283 283 283 283 283 284 285 285 284 284 284 284 285 285 286 287 288 288 289 289 288 289 289 289 289 291 293 291 293 294 295 295 294 294 294 294 294 293 293 294 294 293 295 293 293 294 296 298 292 295 298 300 297 298 300 302 302 303 303 303 303 302 303 303 303 303 303 303 303 303 303 303 303 303
283 283 283 282 282 283 283 282 283 282 282 283 284 284 285 286 286 287 287 287 288 289 290 291 291 292 293 294 295 295 296 295 296 296 295 295 295 294 293 292 293 293 294 294 293 290 294 296 294 292 295 296 296 296 298 300 301 301 301 301 301 302 302 302 302 302 302 302 303 303 303 303 302 302
281 281 281 281 281 281 281 282 284 283 283 282 282 283 284 285 285 286 287 288 289 288 289 290 290 291 291 292 292 293 294 295 296 294 293 292 291 290 289 288 291 291 292 293 292 290 291 293 291 290 292 293 294 294 293 296 299 300 300 301 301 301 301 301 301 301 301 302 302 302 303 303 302 301
280 280 280 280 280 280 280 282 283 284 283 281 281 281 282 283 284 284 286 287 288 289 289 289 290 291 292 293 293 294 294 293 293 292 289 288 290 288 287 288 289 290 292 290 293 291 290 292 292 290 292 292 291 292 293 292 296 298 299 299 299 300 300 300 300 301 301 301 301 302 302 302 301 300
278 278 281 281 280 280 280 282 283 283 282 280 280 280 280 280 281 282 284 285 286 288 288 288 289 290 290 290 291 291 292 292 291 290 287 289 290 287 288 287 288 290 290 289 292 290 289 291 290 288 289 290 288 290 291 291 291 295 297 298 298 299 299 299 299 300 300 300 300 301 301 301 300 300
277 278 279 279 279 279 280 282 282 282 281 279 279 280 280 279 279 281 283 283 283 284 284 285 286 286 286 287 287 287 289 289 289 289 289 289 288 286 287 287 287 286 287 290 292 289 287 289 287 289 287 287 289 289 289 289 288 285 287 289 291 294 295 297 298 299 299 299 300 300 300 300 300 297
276 276 277 278 280 281 281 281 281 282 282 280 280 280 279 278 278 281 282 282 283 283 283 283 284 284 286 286 287 287 287 287 288 288 288 288 287 286 286 286 286 285 286 287 289 288 287 289 287 290 288 286 285 289 287 290 290 288 286 289 287 291 293 294 295 297 298 299 299 299 300 300 299 295
274 275 275 276 278 279 280 280 281 281 282 282 280 280 279 279 280 282 281 282 283 283 283 283 284 285 285 286 286 286 286 287 287 288 289 289 289 288 286 286 286 286 288 290 293 290 287 288 288 288 288 288 288 288 290 290 291 289 289 290 290 289 288 289 289 290 293 296 297 298 298 299 299 297
274 274 274 274 276 278 279 280 280 281 281 282 279 278 281 283 283 282 282 282 282 282 282 282 283 284 284 284 285 286 286 287 287 288 288 289 289 290 290 288 286 285 286 290 293 290 288 287 288 287 287 287 286 288 287 287 289 288 289 288 288 288 289 288 288 288 289 289 290 293 294 297 297 298
273 273 274 274 276 278 278 279 280 280 281 280 278 281 282 282 282 281 280 280 279 280 280 280 280 281 282 283 283 284 285 286 287 287 288 287 287 287 287 288 289 289 290 287 286 286 286 285 286 285 284 285 284 285 285 284 285 288 288 287 288 288 289 289 288 288 288 288 289 293 294 296 296 297
273 273 273 274 277 278 278 278 279 279 279 278 280 280 280 280 279 278 278 279 279 279 280 280 280 281 282 283 283 284 285 286 285 285 285 285 285 285 285 286 286 286 286 286 286 286 286 284 284 285 285 284 283 282 282 285 286 286 285 287 287 287 288 286 286 287 287 287 287 287 287 288 289 289
273 275 276 277 277 277 277 277 277 277 277 277 277 278 278 276 275 275 275 275 276 275 276 277 278 279 281 282 283 284 284 284 285 284 284 285 285 285 285 285 285 285 285 285 286 286 286 285 285 285 285 285 284 284 284 283 285 284 285 285 284 285 286 286 286 286 287 287 287 288 288 288 288 287
275 276 276 276 275 275 274 274 274 273 273 275 275 275 274 273 273 273 273 273 273 274 275 276 277 278 279 280 282 283 283 283 282 283 283 284 284 285 284 284 285 285 286 286 286 286 286 286 285 285 284 284 284 283 283 283 282 284 284 283 283 284 284 285 284 285 285 285 287 287 287 287 288 288
272 273 272 272 273 273 274 274 273 272 271 270 270 270 270 270 270 271 271 271 272 273 274 273 273 275 276 279 280 280 282 282 283 284 283 283 283 284 284 283 283 284 285 286 285 285 284 283 283 283 281 281 283 283 283 283 280 280 281 283 283 279 281 281 282 282 282 283 284 285 287 286 285 285
272 271 270 270 269 270 269 269 268 268 268 268 268 268 268 268 269 270 271 272 272 273 272 272 272 274 275 275 276 278 279 280 281 282 282 282 281 283 283 282 281 283 283 284 283 283 283 282 281 281 281 280 279 280 280 279 278 279 280 280 279 278 278 278 278 279 280 281 281 283 282 279 279 279
270 268 266 265 266 266 265 265 265 265 265 265 266 266 266 266 267 267 268 268 269 270 270 270 271 272 272 273 274 275 275 277 278 280 280 280 280 281 281 280 281 281 280 280 279 280 279 279 281 281 280 279 279 278 277 276 277 276 274 273 274 274 275 275 277 277 279 280 281 281 279 278 278 278
265 263 262 262 262 263 263 263 263 263 263 263 263 264 265 265 265 266 267 267 268 269 269 269 270 270 270 271 272 272 272 273 275 277 278 278 280 279 279 279 280 280 279 278 278 278 277 277 277 279 280 278 278 276 276 275 275 273 272 271 272 272 274 275 276 277 278 279 279 278 277 276 277 277
262 261 260 261 261 262 262 262 262 262 262 262 262 262 263 263 264 265 265 266 267 267 268 268 268 269 269 269 270 270 270 271 272 274 276 277 278 278 278 278 278 278 278 277 277 276 275 275 275 276 278 276 275 275 277 276 272 272 272 270 270 271 273 275 276 276 276 277 278 276 275 275 275 277
260 260 260 260 260 261 261 261 261 261 261 262 261 261 262 262 263 264 264 266 266 266 267 266 267 267 267 268 268 269 269 270 271 271 273 274 275 276 277 277 277 278 277 276 275 275 275 274 274 273 273 275 275 274 271 276 276 273 271 271 272 272 273 274 276 275 274 274 276 275 273 272 273 275
259 259 259 260 260 260 260 260 260 260 261 261 261 261 261 261 262 263 265 266 266 266 266 266 265 266 267 267 267 268 268 268 268 270 270 272 274 274 274 275 275 275 275 275 275 274 274 272 273 271 271 272 273 274 272 271 274 276 273 272 272 272 272 273 274 273 273 273 273 274 273 273 273 275
258 259 259 259 259 259 260 260 260 260 260 260 260 261 261 261 262 263 264 264 265 265 265 264 265 265 266 266 266 266 267 267 268 268 269 271 271 271 272 272 273 274 274 275 274 273 273 271 271 270 270 270 270 272 272 271 269 272 276 274 272 272 273 273 272 271 272 273 272 273 274 273 274 275
257 258 258 258 259 259 259 259 259 259 259 260 260 260 260 261 261 262 263 263 264 264 264 264 264 264 264 265 265 265 265 266 266 267 268 269 269 269 270 271 272 272 272 272 273 272 271 270 270 269 269 268 269 270 269 268 268 270 273 276 275 273 272 272 271 272 272 272 272 272 272 275 277 279
258 258 258 258 258 258 258 259 259 259 259 259 259 260 260 261 261 261 262 263 264 264 264 264 264 264 263 264 264 264 265 265 266 266 267 268 268 269 269 270 270 271 271 271 271 270 270 269 269 269 269 269 270 271 271 271 271 272 271 273 276 275 273 272 271 271 272 273 273 272 272 273 273 275
257 257 257 257 257 258 258 258 258 258 258 259 259 261 261 261 261 261 263 263 264 263 263 263 263 263 263 263 263 263 263 264 265 266 266 267 267 268 269 269 269 270 268 268 269 269 269 269 271 272 272 271 272 272 271 269 269 269 269 271 274 276 278 277 274 272 272 273 273 272 271 271 272 273
257 256 256 257 257 257 257 257 257 258 258 259 259 259 260 260 261 263 263 263 263 263 263 262 263 263 263 263 263 263 263 263 264 265 266 266 266 267 268 268 268 268 268 267 268 268 270 271 271 271 271 271 271 269 268 269 268 268 268 270 271 274 275 277 278 278 276 274 272 271 271 272 273 272
256 256 256 256 257 257 257 257 257 257 258 258 259 259 259 260 260 261 261 262 262 262 262 262 262 262 262 262 263 263 263 263 264 264 265 265 266 266 266 267 268 268 268 268 269 269 270 270 270 270 270 270 270 270 268 268 268 268 268 268 269 271 272 275 276 277 278 278 278 276 274 272 271 270
256 256 255 256 256 256 256 257 257 257 258 258 258 259 259 259 259 260 261 261 262 262 261 261 261 261 262 262 263 263 263 263 264 264 264 265 265 266 266 267 267 268 268 268 268 268 269 269 270 270 269 268 269 269 268 268 267 268 267 268 269 269 270 271 272 273 274 276 278 278 279 279 278 277
255 255 255 255 256 256 256 257 257 257 257 257 257 258 258 259 259 260 261 262 262 261 261 261 260 261 261 262 262 262 262 264 264 264 264 265 265 266 266 267 267 267 267 267 267 267 268 268 269 269 269 269 269 268 269 268 268 268 267 267 267 268 269 270 269 269 270 270 275 278 278 278 279 279
Wind_Speed
13 10 9 8 9 8 8 8 9 9 9 9 9 10 12 10 12 12 10 10 8 7 6 6 4 7 8 7 6 7 7 8 9 6 6 7 6 9 14 15 16 16 16 14 16 17 17 18 18 18 18 18 18 17 17 17 18 17 17 18 19 18 17 16 15 15 15 14 15 16 17 17 17 17
11 12 11 10 9 8 8 8 8 8 8 9 9 9 10 9 11 11 13 12 6 7 5 6 8 4 6 5 5 5 7 10 10 6 7 7 7 12 15 16 16 16 16 16 15 15 17 17 18 18 18 19 19 18 19 19 20 19 20 20 20 18 15 14 14 15 15 15 15 16 16 17 17 17
13 13 14 12 10 9 8 8 8 7 7 8 8 9 8 9 10 11 10 13 7 6 9 6 5 6 6 6 6 6 7 6 7 7 7 7 11 15 13 16 16 16 17 17 16 15 15 17 18 18 18 19 19 19 19 21 22 22 22 23 20 16 14 13 13 13 14 15 16 17 17 17 18 18
13 15 15 14 12 12 11 10 9 9 9 9 9 9 9 9 10 10 11 12 15 6 8 10 7 9 6 5 7 6 6 8 11 7 7 9 12 10 8 13 16 16 16 16 16 16 16 16 17 19 19 19 20 20 19 20 20 21 21 18 16 15 14 14 14 14 13 14 15 16 17 18 19 19
14 14 14 14 14 13 13 11 10 9 9 9 8 8 8 9 8 9 10 12 13 8 6 8 8 8 9 8 7 9 8 6 6 8 7 7 7 8 8 8 13 16 16 16 17 17 17 17 17 17 17 18 18 18 18 18 18 17 17 16 16 15 15 15 15 15 14 14 14 15 16 18 18 19
12 14 15 14 14 13 14 13 12 10 10 9 9 9 8 9 9 8 10 11 12 14 6 7 7 7 7 10 5 7 8 8 5 7 8 6 6 7 7 8 8 15 16 17 18 18 18 18 17 17 16 15 16 16 16 16 16 16 17 17 17 16 16 15 15 16 16 16 15 15 16 17 18 19
14 14 14 14 13 11 13 13 12 11 11 10 10 11 9 9 9 9 8 9 11 12 10 5 6 6 6 8 10 7 7 6 6 7 7 7 6 6 7 8 7 12 15 16 17 18 18 18 18 18 17 16 15 16 16 16 16 16 17 17 16 16 16 16 16 17 16 16 16 15 15 16 17 18
14 15 15 14 14 14 15 14 13 11 11 11 11 11 9 9 10 10 9 10 11 11 13 8 8 6 7 6 7 7 7 8 6 7 8 6 6 7 7 8 7 9 15 17 17 17 17 17 18 18 17 16 16 16 16 17 17 17 17 17 16 16 16 16 16 16 17 17 17 16 16 16 16 17
14 15 15 15 14 13 14 14 13 12 14 12 12 12 11 10 10 9 9 9 8 10 12 10 7 5 6 6 6 6 7 7 8 6 7 8 10 9 8 7 8 12 15 16 16 15 17 17 17 18 17 17 17 16 16 17 17 17 17 17 16 16 16 16 16 17 17 17 17 17 16 16 16 17
13 14 15 16 15 14 12 12 12 13 12 13 13 14 14 13 12 12 11 10 11 11 11 10 10 5 7 7 6 5 5 7 8 9 9 7 8 9 9 9 7 6 5 5 8 12 13 15 17 17 17 17 17 17 17 17 17 17 17 17 17 16 16 17 17 17 18 18 18 18 17 17 17 17
13 14 14 15 15 15 13 13 12 13 14 12 13 13 13 13 13 13 12 11 11 11 12 12 11 10 7 7 10 7 5 7 8 9 8 9 8 7 7 10 8 5 7 9 12 10 9 11 11 14 17 18 18 17 17 18 18 17 16 16 16 16 16 17 17 18 18 18 19 18 18 17 17 18
14 15 14 14 15 15 14 14 14 13 14 13 14 13 11 11 13 13 13 13 12 12 10 10 11 9 9 8 7 6 4 7 9 9 8 11 11 11 7 8 11 7 5 7 7 8 10 10 12 13 14 15 15 15 16 17 17 17 16 16 16 16 17 18 18 18 18 18 18 18 18 18 18 18
13 14 14 14 14 15 16 21 20 20 16 12 13 12 11 11 11 11 11 12 12 12 12 13 11 11 10 9 8 7 7 9 11 7 7 9 10 10 9 9 9 8 7 6 7 9 7 8 8 7 6 7 9 12 16 14 17 17 17 17 17 17 18 18 18 18 18 18 18 18 19 19 19 18
11 12 12 13 17 17 17 18 18 16 17 19 17 15 15 14 13 13 13 12 10 11 12 12 12 13 13 12 10 9 7 7 5 7 7 9 8 7 7 7 7 5 4 4 9 9 5 5 7 8 8 6 5 6 7 8 10 12 16 17 17 18 18 18 17 18 18 18 18 18 18 18 18 18
11 10 10 10 12 13 13 12 15 18 20 18 19 21 20 17 14 12 14 13 11 13 11 11 12 12 14 14 10 9 7 5 4 4 4 5 4 6 6 11 6 3 0 3 4 8 3 3 6 7 7 6 4 6 8 11 11 13 15 16 17 17 17 17 16 16 16 16 16 17 18 18 18 18
9 10 9 9 9 10 12 16 16 16 17 18 16 16 17 18 19 17 14 12 12 12 14 14 13 13 13 13 10 8 8 7 6 4 5 3 5 6 7 5 7 2 4 3 5 9 7 3 4 8 10 8 5 8 12 15 13 12 12 11 12 14 15 15 14 14 15 16 16 17 17 17 17 18
11 10 9 9 9 10 16 14 11 13 14 16 19 19 19 20 20 19 20 19 16 14 16 12 13 14 12 13 11 8 3 4 9 7 7 6 7 6 8 8 7 6 3 6 5 9 12 4 2 7 11 9 2 6 11 13 13 15 17 17 17 16 15 14 15 15 17 19 18 17 17 16 16 16
10 9 9 10 10 9 10 10 14 15 17 17 17 15 14 13 14 15 16 18 21 19 16 17 18 16 13 12 12 14 12 12 12 12 12 8 10 11 14 11 9 5 2 3 2 10 14 12 3 7 12 10 5 7 12 15 14 15 16 16 15 15 16 17 17 17 18 19 19 19 17 17 16 16
10 10 10 10 11 11 11 11 16 16 17 17 15 15 15 13 12 12 11 11 11 11 12 14 15 14 13 13 12 13 13 14 12 13 14 10 10 9 6 7 7 9 4 4 2 12 14 11 6 6 11 10 10 7 11 15 14 14 15 17 16 16 17 17 17 17 18 18 18 19 19 18 17 16
11 10 11 11 12 13 13 15 23 21 18 17 17 17 16 14 12 11 10 14 14 15 15 14 14 14 16 19 16 15 14 11 8 7 8 7 7 8 8 10 9 10 3 6 6 9 14 12 9 6 8 9 12 9 7 10 10 11 13 14 14 14 15 15 16 16 17 18 18 19 19 20 19 16
9 9 11 12 12 13 12 17 23 24 24 17 17 17 16 14 13 12 10 12 15 18 20 22 23 24 25 25 24 22 22 16 11 9 9 11 9 9 9 11 10 11 4 4 7 9 12 12 9 5 9 9 9 10 9 6 10 15 16 17 18 17 17 17 16 16 16 17 17 18 18 19 18 19
11 12 18 16 13 13 13 20 24 26 22 17 16 17 18 18 16 14 12 9 9 14 19 20 21 20 19 18 18 18 16 13 7 6 11 11 9 9 7 12 11 11 8 5 7 7 11 11 6 6 7 9 6 9 8 7 7 10 11 12 12 11 11 11 12 13 14 15 17 17 17 17 17 13
11 12 13 20 19 17 18 25 25 27 22 17 16 16 17 17 17 14 12 11 11 11 11 10 12 14 17 16 13 12 16 17 14 10 10 8 10 10 9 10 9 10 11 5 12 11 8 9 6 6 4 6 7 7 7 9 5 2 3 6 7 7 9 12 14 15 15 17 17 17 18 18 16 9
14 14 13 14 19 23 25 26 27 26 28 21 17 15 14 15 19 14 14 12 13 13 13 14 14 15 14 13 13 13 13 12 12 13 11 12 11 11 10 9 9 10 9 2 4 1 2 2 4 3 4 6 9 6 3 8 8 3 2 6 4 5 7 9 11 13 14 15 16 17 17 16 14 8
14 14 14 13 19 26 26 27 29 29 29 27 18 14 14 15 18 21 16 17 19 16 15 14 13 12 10 9 9 9 10 11 10 10 11 12 12 11 11 9 8 9 10 8 3 3 4 4 9 7 6 5 7 11 12 9 8 5 0 3 7 3 2 5 6 7 8 12 14 15 15 16 16 12
14 14 14 14 20 27 28 30 31 31 29 29 18 16 24 28 27 19 14 13 12 12 12 11 11 10 9 9 8 8 8 9 9 9 10 11 12 11 10 10 9 9 11 5 8 8 7 6 6 5 2 3 4 6 12 15 13 3 2 2 3 5 4 7 7 8 8 7 8 10 13 17 18 17
15 14 15 16 24 29 30 30 30 30 31 25 17 26 26 26 27 21 12 13 13 13 13 13 13 12 11 11 11 10 9 8 10 11 9 6 5 5 6 6 7 8 7 2 4 2 4 5 3 5 6 4 8 8 10 12 17 7 2 4 5 6 8 7 9 8 7 8 9 14 16 18 19 18
15 14 15 17 29 29 29 30 29 28 27 18 24 26 27 25 21 12 12 11 11 12 12 11 11 11 10 10 10 10 8 5 3 4 5 5 6 6 6 7 8 8 8 5 2 2 3 6 8 7 7 9 10 11 13 11 11 13 13 7 5 6 5 5 7 8 7 7 8 7 7 9 7 8
14 20 28 28 27 28 28 28 26 20 19 23 26 25 23 21 9 9 9 10 10 11 11 10 11 10 9 10 9 8 7 7 5 5 5 6 7 8 9 9 8 8 6 5 5 5 6 6 8 7 7 7 9 8 8 11 9 9 8 11 8 3 7 8 5 7 8 7 8 8 8 8 9 5
26 26 25 26 26 23 20 16 13 12 14 23 24 22 20 11 10 9 10 11 11 11 10 10 10 10 11 11 11 10 8 7 7 6 6 7 8 8 8 8 8 6 7 7 6 6 7 8 7 5 4 5 5 7 7 9 11 6 5 8 11 10 2 4 8 8 8 8 8 9 8 7 9 8
13 15 16 16 22 19 22 21 18 17 17 14 12 10 11 10 10 10 10 11 12 11 10 11 10 10 10 11 11 10 9 8 6 5 5 6 7 6 6 7 8 7 4 6 5 3 3 2 1 3 4 4 5 7 7 5 7 5 5 7 7 10 7 6 6 7 8 9 8 8 8 5 4 5
13 12 13 15 10 10 10 9 7 7 9 9 10 10 9 9 11 13 16 15 9 8 9 9 10 9 10 10 11 11 10 9 7 6 6 6 6 6 5 6 6 5 4 3 3 3 3 3 3 2 3 4 6 5 4 5 6 6 7 4 6 7 7 7 6 6 7 9 8 7 4 4 4 5
9 9 10 9 10 9 10 9 8 9 9 9 10 10 10 10 10 10 9 10 10 10 10 10 10 10 10 10 10 10 10 10 9 8 7 7 7 7 6 7 7 6 5 3 1 0 2 4 3 4 5 5 5 5 4 5 5 2 4 6 6 7 6 6 6 7 8 7 7 6 4 3 4 5
8 8 8 8 9 9 8 10 9 9 8 10 9 9 13 12 10 10 9 10 10 10 11 10 10 9 10 9 9 9 10 10 10 10 11 8 8 7 7 7 6 4 2 2 0 1 2 2 3 5 3 2 1 1 2 3 4 4 4 4 4 6 6 6 6 7 7 6 7 7 4 4 5 5
6 8 8 8 8 8 8 8 9 9 9 8 9 9 10 10 11 11 10 10 11 12 10 10 9 9 9 9 8 9 10 10 10 10 9 9 7 7 6 6 5 4 3 2 2 1 1 2 3 3 2 3 2 0 3 1 2 2 2 3 4 5 6 6 6 6 6 6 5 4 3 3 6 6
7 6 7 8 8 8 8 7 8 9 8 9 8 9 9 10 10 11 10 11 11 11 10 10 10 10 10 9 9 9 10 11 9 9 9 8 8 7 6 6 6 6 4 2 2 1 1 1 1 0 1 3 4 4 2 4 6 1 4 5 5 4 5 6 5 4 5 5 5 2 2 2 5 6
7 6 7 7 8 8 8 8 7 7 8 9 9 8 9 10 10 10 12 13 10 9 10 10 10 10 10 10 10 10 10 10 10 10 9 9 8 7 7 6 6 5 5 5 1 0 1 0 0 2 2 2 3 5 2 2 3 6 5 5 6 5 6 6 5 4 4 3 3 3 1 1 4 6
6 6 7 7 8 8 8 8 8 8 8 8 9 9 8 9 9 9 10 9 9 8 9 9 10 10 9 10 9 9 9 8 8 9 9 9 8 7 7 7 6 5 4 5 1 2 2 1 0 1 2 3 4 4 3 2 1 4 8 6 6 6 4 4 4 3 4 3 2 3 2 2 4 4
6 7 7 7 8 8 8 8 8 9 9 9 9 9 9 9 9 9 9 9 8 8 8 9 9 10 10 10 10 10 10 9 8 8 9 7 7 8 8 7 6 5 5 5 1 1 1 1 1 0 1 2 4 1 1 1 1 0 5 9 5 4 4 2 3 3 3 3 4 4 3 3 4 6
7 6 7 7 8 8 8 8 8 8 9 8 8 9 9 10 9 10 10 9 9 9 9 9 10 10 9 9 10 10 10 9 9 8 9 8 9 9 7 7 7 6 5 5 3 1 1 1 1 2 3 4 4 4 4 4 3 0 2 6 10 7 2 1 2 2 3 3 4 3 4 3 4 4
7 8 7 7 8 8 8 8 8 9 9 9 9 9 9 9 10 9 9 10 10 9 9 9 9 9 9 9 9 9 10 10 9 8 8 9 10 10 10 10 6 5 5 5 4 3 3 3 4 7 6 5 5 4 3 3 2 2 2 4 7 10 9 4 0 0 1 2 2 2 2 3 2 3
7 8 8 7 8 8 8 8 9 9 9 8 8 8 9 9 9 15 13 12 10 9 9 9 9 9 9 9 9 10 9 10 9 9 9 9 9 9 9 7 6 5 5 5 5 5 4 4 5 5 4 3 3 3 3 2 0 2 1 2 4 6 9 11 11 7 3 2 1 1 2 2 1 2
7 7 8 8 8 8 8 8 8 8 9 8 8 9 9 9 8 9 8 9 8 8 8 9 9 9 9 9 9 9 9 9 9 9 10 9 9 9 8 7 7 6 5 6 5 5 5 5 5 4 4 2 2 2 1 2 3 3 1 2 3 3 4 7 10 12 12 12 9 4 1 2 1 0
6 7 8 8 9 9 9 9 9 8 8 8 9 8 8 9 9 9 9 9 8 7 8 9 9 9 10 9 9 9 8 9 9 10 10 9 9 9 9 8 7 6 6 5 5 5 5 5 5 3 2 1 1 1 2 3 3 3 0 0 1 2 3 3 4 6 8 11 12 10 10 8 5 5
6 6 7 9 9 8 8 9 9 8 8 8 8 8 9 9 9 9 9 8 7 7 7 8 10 10 10 9 9 10 9 11 10 9 9 9 8 9 8 8 7 6 6 6 5 5 4 5 4 1 1 2 1 2 3 4 3 3 2 2 2 2 2 2 3 4 5 5 11 11 9 11 12 13
Wind_Direction
318 307 292 281 278 272 268 266 261 259 258 255 255 255 260 263 270 276 269 263 266 265 238 262 256 232 242 242 240 245 240 236 228 223 215 221 227 231 232 238 244 248 251 251 255 259 260 260 259 260 262 261 259 254 249 248 249 249 251 256 261 266 270 269 268 264 260 257 252 249 241 234 231 230
321 319 315 303 289 278 268 262 256 253 251 251 247 248 251 250 260 266 271 273 252 271 260 252 269 253 251 248 248 244 250 233 217 216 219 225 230 235 236 238 239 242 248 254 255 254 257 258 258 259 261 264 265 262 259 256 257 255 257 261 266 266 265 264 265 265 261 258 256 252 247 242 236 233
323 320 316 314 305 300 289 281 275 265 262 255 248 248 244 243 248 257 263 275 248 207 260 253 246 261 245 246 248 246 245 238 223 227 228 231 233 235 237 236 239 242 248 255 262 264 266 268 267 266 267 268 269 270 268 270 269 268 267 268 268 265 260 260 264 265 262 259 257 253 249 245 242 238
322 320 317 317 317 316 309 297 287 279 268 263 261 255 251 252 246 246 254 254 268 218 239 258 250 256 255 244 256 246 249 252 247 236 229 234 238 238 241 240 238 242 244 248 252 255 259 260 262 265 266 268 270 272 274 276 276 275 275 273 269 267 262 258 259 261 262 262 258 256 254 250 246 243
323 320 317 316 315 317 312 308 301 292 282 277 270 262 259 256 249 247 252 261 270 262 218 242 249 247 259 264 235 249 249 241 248 250 247 234 233 235 234 234 234 235 237 240 243 246 249 253 256 257 260 263 266 269 270 271 273 275 276 276 274 268 264 261 259 259 261 260 259 257 253 252 251 248
325 321 318 316 315 315 309 308 308 308 303 294 284 278 270 265 263 249 255 258 263 270 251 244 248 246 233 256 225 225 248 254 238 244 253 252 229 229 229 232 236 227 231 233 237 240 243 246 248 251 253 255 258 261 263 264 265 267 268 268 268 268 267 265 263 262 261 260 259 259 257 254 251 249
322 319 316 314 314 315 310 308 306 307 305 303 297 290 281 275 272 268 258 268 270 271 268 240 256 251 240 236 253 243 235 242 219 236 246 241 242 238 230 234 234 229 225 228 231 234 237 240 243 245 247 248 250 252 255 258 260 260 262 263 263 262 262 261 262 262 262 261 261 260 259 258 256 253
320 319 318 317 319 321 317 315 313 311 307 306 304 299 297 291 286 277 272 263 268 272 277 261 251 246 256 257 261 261 256 259 245 232 257 262 243 243 238 232 235 228 228 234 234 232 235 237 238 241 242 244 246 248 249 252 253 254 255 256 257 257 257 257 259 260 260 259 258 256 255 254 254 255
319 318 314 314 314 315 313 313 312 316 312 312 308 303 302 299 297 293 290 286 280 280 275 277 262 258 259 257 256 252 255 269 276 271 252 254 263 260 247 240 244 251 239 233 234 233 236 238 239 240 240 241 244 248 249 250 252 253 254 255 255 254 254 255 255 255 255 257 257 256 254 252 251 251
316 314 314 313 313 310 306 306 308 311 325 332 325 326 325 324 323 318 307 295 290 285 281 280 284 273 270 287 272 267 265 265 273 278 277 281 268 262 268 261 256 245 241 250 248 246 244 245 243 242 242 241 242 244 247 250 252 253 255 257 257 256 254 253 252 252 253 253 253 253 252 251 249 247
314 313 312 310 310 307 305 307 316 326 322 318 315 313 312 313 312 309 303 304 299 290 283 278 274 277 260 246 267 266 245 249 246 254 274 272 266 269 259 272 269 247 254 249 244 242 235 232 232 237 238 239 240 241 245 248 250 252 254 256 257 257 256 254 253 252 251 251 251 251 251 251 250 249
314 312 309 310 310 311 322 327 326 323 318 313 304 304 307 310 307 303 302 299 295 291 290 282 282 267 270 264 255 264 268 263 263 250 243 256 263 262 251 246 263 262 229 256 270 262 262 262 254 255 253 248 244 244 248 250 251 250 252 254 254 255 254 253 252 251 251 251 251 251 251 251 251 250
308 311 311 309 309 309 316 319 315 308 304 303 305 307 307 309 302 297 296 293 290 286 282 281 278 280 277 267 263 260 244 234 242 245 233 247 248 257 260 259 254 247 244 253 259 263 246 254 257 250 253 248 233 239 240 247 247 246 249 251 253 253 252 251 250 250 250 250 250 250 250 251 250 250
305 303 303 302 300 304 305 298 294 300 314 314 306 304 305 300 294 292 293 291 287 285 282 275 277 274 270 268 262 260 249 252 264 266 255 253 257 266 262 265 253 250 235 248 259 259 242 226 258 260 256 257 210 227 240 237 236 238 239 244 247 249 251 251 249 249 249 249 249 249 250 250 250 249
307 300 297 300 300 297 298 303 310 307 300 293 290 285 282 283 282 282 286 285 286 289 283 283 279 271 271 270 273 270 283 275 280 269 286 288 285 271 277 272 299 344 102 261 284 276 260 201 247 270 260 252 244 248 253 251 238 239 240 241 243 246 250 251 251 250 251 251 251 250 249 250 249 250
298 296 297 300 308 315 321 315 305 297 292 292 298 312 316 314 306 295 285 284 283 279 281 282 276 278 271 277 277 283 288 297 318 322 318 294 290 294 280 264 252 259 36 40 325 291 275 193 245 275 272 268 236 245 253 257 260 258 262 259 255 256 256 257 259 261 262 260 261 259 255 250 248 249
296 297 304 311 312 312 307 303 310 319 321 319 313 308 308 303 297 296 297 296 292 288 277 262 265 264 278 283 285 288 303 328 299 301 291 287 281 270 270 264 274 285 30 26 339 290 284 284 181 264 275 271 227 267 269 271 274 274 275 272 267 260 257 256 259 264 269 272 269 263 262 259 254 250
298 302 310 310 309 309 314 327 324 319 313 309 305 302 295 290 285 284 283 282 284 284 286 284 276 272 266 263 272 278 284 285 282 284 281 286 282 279 271 276 275 266 6 296 309 282 278 271 205 234 268 274 260 251 263 268 265 266 266 265 265 265 267 267 267 266 264 264 265 266 262 261 261 258
315 317 316 313 310 313 314 313 312 310 308 305 303 299 295 288 285 283 282 286 288 282 273 273 278 281 278 274 267 264 262 257 260 266 271 272 269 271 285 289 268 271 210 197 187 264 273 276 263 237 268 284 278 249 267 265 264 262 264 268 268 266 268 268 266 264 262 261 261 264 269 268 264 261
321 317 314 312 309 307 306 309 311 311 311 308 305 303 299 294 286 278 276 278 280 280 283 284 283 284 284 283 284 285 288 293 293 297 296 286 274 275 274 270 272 267 197 177 187 254 266 275 273 263 261 271 274 267 245 262 264 263 265 269 271 271 271 269 267 263 261 261 262 263 264 269 270 266
309 311 312 310 307 305 304 309 311 314 315 309 306 304 303 302 298 292 289 275 274 277 279 280 284 282 279 279 281 282 282 282 278 275 279 271 271 270 274 270 269 266 259 189 204 239 263 265 268 273 261 260 269 275 269 244 251 255 260 262 264 266 268 271 272 270 267 265 264 265 265 269 274 275
312 311 311 311 308 307 306 309 312 316 316 309 306 304 304 304 301 297 296 289 278 271 273 276 278 286 295 297 297 297 296 297 301 261 260 270 276 262 248 262 266 279 271 235 180 236 246 267 261 267 274 282 247 256 265 258 237 245 254 262 266 269 272 274 274 272 271 268 266 266 267 268 270 275
314 311 312 312 311 309 310 312 314 314 314 309 306 303 300 299 299 299 301 300 299 292 288 281 283 280 281 284 283 280 283 284 284 272 274 281 267 259 253 256 268 277 268 237 183 214 240 247 270 253 308 278 272 244 256 267 258 219 237 266 273 270 272 271 269 270 268 264 262 261 262 263 266 267
316 314 311 310 312 316 316 313 312 312 310 307 300 297 298 301 300 303 298 291 284 280 277 277 272 273 272 266 262 262 267 270 268 267 261 256 253 256 254 251 242 244 258 154 107 145 261 259 279 273 262 299 303 297 225 281 281 253 212 268 268 281 275 278 281 280 279 277 274 271 269 269 267 263
314 314 313 313 316 316 315 314 311 310 309 307 305 304 301 296 294 296 290 290 287 285 283 278 275 272 267 261 260 261 257 254 250 244 242 240 239 240 243 245 238 242 254 244 297 338 279 272 278 284 261 221 261 284 290 285 274 283 10 311 307 304 329 308 298 296 293 288 283 278 275 270 266 254
313 313 313 312 312 314 313 312 312 311 309 309 310 304 299 298 298 300 304 304 302 298 295 289 284 279 274 270 263 259 255 251 246 242 244 241 239 237 232 232 237 249 257 264 242 230 253 253 259 270 276 274 273 281 299 295 287 282 272 260 315 310 311 294 288 285 275 264 263 267 265 267 267 264
312 311 310 309 311 313 313 312 311 310 311 312 306 304 309 313 315 316 309 304 297 292 284 280 276 273 269 264 261 256 251 243 241 244 247 257 270 273 276 276 267 266 286 17 82 356 301 273 275 285 288 288 293 287 276 283 290 306 296 302 297 292 297 280 278 282 279 273 268 266 266 267 268 267
310 310 309 309 312 312 313 313 312 312 311 311 316 319 316 321 325 319 312 307 308 305 300 289 278 274 270 265 259 254 251 260 287 293 281 274 271 271 269 267 265 265 270 270 218 188 238 279 278 265 262 270 269 269 276 271 271 295 306 307 289 272 289 326 307 290 279 277 280 278 279 278 272 274
309 308 311 311 313 315 314 314 313 313 320 326 322 319 325 329 321 319 316 313 309 306 306 306 307 307 307 306 309 315 310 298 292 296 289 286 287 287 285 281 277 276 275 277 272 261 246 245 258 257 244 237 242 250 254 274 287 292 309 315 315 67 331 282 289 308 309 303 291 284 277 279 281 272
312 311 313 318 317 315 314 314 321 327 326 323 323 325 328 323 323 321 318 314 312 309 308 314 322 327 326 322 317 311 305 295 285 288 293 283 268 255 251 253 255 248 247 248 243 238 230 235 241 239 239 246 245 260 264 281 281 290 327 316 306 312 208 355 331 310 304 298 292 285 279 267 269 276
306 314 324 320 317 314 317 322 322 324 324 323 326 329 328 325 323 321 317 313 309 311 321 327 325 318 311 310 312 312 310 305 305 296 291 293 291 283 270 270 272 268 250 255 250 184 145 147 171 209 231 252 260 257 267 276 289 318 307 294 303 300 322 329 305 312 299 294 293 287 281 284 311 324
321 327 324 319 312 318 325 322 325 324 325 326 325 323 322 319 321 320 315 312 311 322 325 319 314 309 318 323 321 319 316 307 300 303 301 298 297 297 291 273 271 270 261 219 120 172 159 172 180 205 215 231 245 262 277 263 269 282 288 317 319 301 309 308 308 297 297 299 297 291 322 15 331 335
335 333 325 326 329 332 329 330 327 327 325 330 327 325 326 326 324 324 326 327 326 325 327 322 319 320 322 319 320 320 319 320 320 318 306 294 292 294 288 280 273 258 247 243 245 2 58 25 342 281 244 227 225 225 236 272 263 323 341 319 306 297 298 303 311 309 313 305 300 309 327 342 353 324
341 333 327 326 328 327 328 329 328 326 332 328 329 329 329 328 325 325 325 325 321 326 323 316 321 322 319 315 319 321 317 314 315 314 310 301 290 281 272 266 259 251 229 215 21 355 354 342 316 287 223 139 91 5 265 252 290 333 325 304 300 299 302 309 310 318 321 314 312 313 327 345 337 333
343 324 325 322 323 322 322 323 325 327 322 322 322 325 326 324 325 325 324 321 325 326 320 324 322 318 314 314 321 321 317 314 312 313 308 301 300 299 302 302 297 280 254 232 225 221 82 320 314 310 227 169 186 230 49 115 163 314 303 325 317 308 312 317 317 326 329 322 333 303 317 342 341 341
328 323 320 321 322 321 321 317 321 321 318 318 319 319 321 322 325 325 323 324 326 320 323 324 324 321 320 321 322 320 317 316 314 312 308 309 309 309 312 309 307 309 282 238 217 167 131 244 300 328 281 246 232 226 184 96 103 25 46 348 336 324 310 315 315 330 341 339 337 334 16 319 326 333
321 322 322 320 317 320 316 319 316 314 317 316 316 315 315 317 317 316 315 319 315 321 327 327 322 321 321 323 323 320 318 320 315 313 309 305 307 312 311 311 318 320 327 296 194 132 94 42 23 162 183 253 245 259 169 207 63 58 55 9 335 340 328 323 329 332 346 330 330 20 5 341 306 321
309 315 316 316 315 315 316 317 317 315 316 316 314 313 310 308 307 308 311 313 315 322 326 325 323 324 324 326 322 321 322 316 313 310 309 317 321 318 316 312 309 315 315 320 13 83 85 100 85 256 206 219 241 261 226 177 7 354 22 17 344 335 331 327 333 336 331 331 354 328 320 358 331 322
314 317 319 317 315 317 316 316 318 315 314 314 314 313 312 311 311 313 314 312 316 323 325 324 325 329 327 323 324 324 319 319 317 317 319 316 318 317 314 309 309 309 306 294 273 150 95 70 190 249 235 232 226 251 41 292 299 230 345 6 352 314 334 326 304 312 312 328 323 313 303 277 284 339
313 314 313 315 313 314 310 313 314 313 312 310 312 311 312 314 316 314 313 316 324 326 323 325 328 327 324 325 325 320 317 314 314 314 315 316 317 316 312 312 312 312 320 313 312 309 91 274 251 231 233 252 264 278 273 264 268 136 3 335 358 1 291 287 320 302 308 321 304 315 311 327 8 330
316 317 313 314 309 309 310 311 311 311 309 309 309 314 313 310 312 310 317 324 326 325 326 327 324 324 321 324 324 324 319 316 312 312 317 317 314 314 316 319 315 322 324 309 313 321 308 272 270 275 267 245 247 249 257 235 219 122 20 323 337 354 22 61 189 294 313 298 318 320 337 342 317 348
312 311 310 312 311 308 310 308 311 310 308 311 312 313 312 311 308 318 320 319 320 323 329 327 327 325 324 323 321 322 317 314 313 315 319 317 312 311 315 314 307 312 311 304 309 303 293 289 286 281 264 249 237 220 242 215 122 73 4 323 313 344 3 24 43 66 76 17 341 334 336 311 307 25
310 308 311 313 311 307 306 307 308 308 308 312 312 311 312 311 307 311 313 316 319 325 332 330 326 324 320 319 318 319 317 315 314 315 317 316 313 313 313 314 312 313 310 301 300 302 301 291 289 282 283 250 240 230 257 102 100 89 57 329 327 332 340 10 16 32 43 53 51 59 192 234 266 148
306 312 312 313 310 307 307 307 306 306 310 311 310 310 311 312 313 312 312 312 317 327 332 331 327 322 319 318 319 318 319 317 317 317 316 316 315 313 313 311 314 313 310 302 301 306 300 303 288 275 296 293 298 85 111 102 95 95 117 356 330 356 353 344 344 9 21 23 33 44 45 58 63 87
306 310 312 311 308 306 306 307 306 310 311 309 310 309 310 308 307 307 305 306 315 328 334 330 326 320 316 318 322 322 321 319 316 312 313 311 312 316 314 313 313 313 314 311 313 305 307 302 300 286 280 307 29 83 76 98 98 90 65 58 15 11 11 6 16 20 15 15 6 41 65 66 79 93